Date_and_time,latitude,longitude,wind_speed,RelWindDirFrom,WindDirFrom,air_pressure,air_temperature,relative_humidity,Temp,platform_speed_wrt_ground,air_pressure_at_mean_sea_level,platform_orientation
2019-04-27 23:40,50.6304683333333,-96.9807833333333,3.9,4.5,36,991.84,4.8,39,4.85,0.0,1019.40,345.5
2019-04-27 23:50,50.6304583333333,-96.9807733333333,4.0,4.3,45,991.79,4.5,36,4.84,0.0,1019.28,345.5
2019-04-28 00:00,50.6304566666667,-96.98077,3.7,4.1,40,991.72,4.5,35,4.85,0.0,1019.17,38.0
2019-04-28 00:10,50.6304566666667,-96.9807716666667,3.1,3.5,22,991.68,3.6,38,4.87,0.0,1019.19,38.0
2019-04-28 00:20,50.6304566666667,-96.9807783333333,2.9,3.6,24,991.72,3.3,37,4.87,0.0,1019.29,38.0
2019-04-28 00:30,50.6304566666667,-96.9807666666667,2.8,4.0,27,991.71,3.4,37,4.86,0.0,1019.25,38.0
2019-04-28 00:40,50.6304566666667,-96.98077,3.4,4.5,9,991.77,3.4,39,4.84,0.0,1019.26,38.0
2019-04-28 00:50,50.6304566666667,-96.98077,4.0,5.0,3,991.78,3.7,36,4.81,0.0,1019.24,38.0
2019-04-28 01:00,50.6304416666667,-96.9807766666667,4.2,5.4,8,991.75,3.9,36,4.81,0.0,1019.18,360.0
2019-04-28 01:10,50.630455,-96.9807733333333,5.0,7.4,9,991.73,4.0,36,4.87,0.0,1019.17,360.0
2019-04-28 01:20,50.63046,-96.980785,5.3,6.8,8,991.67,3.7,38,4.89,0.0,1019.18,360.0
2019-04-28 01:30,50.6304566666667,-96.9807766666667,5.0,5.7,7,991.67,3.5,39,4.84,0.0,1019.22,360.0
2019-04-28 01:40,50.630435,-96.9807666666667,5.4,6.4,4,991.67,3.2,41,4.80,0.0,1019.25,360.0
2019-04-28 01:50,50.6304533333333,-96.9807633333333,5.6,6.4,360,991.77,2.9,43,4.77,0.0,1019.37,360.0
2019-04-28 02:00,50.630445,-96.9807616666667,5.6,6.8,351,991.93,2.7,44,4.77,0.0,1019.58,176.8
2019-04-28 02:10,50.6304466666667,-96.9807683333333,6.6,8.3,356,991.98,2.4,45,4.78,0.0,1019.66,176.8
2019-04-28 02:20,50.6304483333333,-96.9807683333333,7.5,8.5,2,992.04,2.3,47,4.79,0.0,1019.73,176.8
2019-04-28 02:30,50.6304516666667,-96.98077,6.3,7.2,6,992.13,2.3,48,4.84,0.0,1019.82,176.8
2019-04-28 02:40,50.6304516666667,-96.98077,5.5,6.3,353,992.29,2.2,48,4.89,0.0,1019.97,176.8
2019-04-28 02:50,50.6304483333333,-96.9807683333333,6.1,8.3,350,992.35,2.0,48,4.92,0.0,1020.04,176.8
2019-04-28 03:00,50.6304466666667,-96.9807683333333,7.1,8.5,351,992.44,1.8,50,4.92,0.0,1020.14,142.0
2019-04-28 03:10,50.6304383333333,-96.9807533333333,7.4,9.4,343,992.56,1.7,49,4.93,0.0,1020.28,142.0
2019-04-28 03:20,50.6304483333333,-96.98076,8.8,11.2,347,992.57,2.0,46,4.94,0.0,1020.28,142.0
2019-04-28 03:30,50.6304533333333,-96.980755,8.3,10.7,348,992.65,1.8,46,4.93,0.0,1020.39,142.0
2019-04-28 03:40,50.6304483333333,-96.9807466666667,8.4,10.7,347,992.80,1.7,46,4.90,0.0,1020.56,142.0
2019-04-28 03:50,50.6304516666667,-96.98075,8.6,10.2,351,992.89,1.5,47,4.88,0.0,1020.68,142.0
2019-04-28 04:00,50.6304533333333,-96.9807566666667,8.0,9.4,347,992.91,1.3,48,4.88,0.0,1020.72,36.6
2019-04-28 04:10,50.630455,-96.980755,7.7,11.0,339,992.96,1.4,46,4.87,0.0,1020.77,36.6
2019-04-28 04:20,50.630455,-96.9807583333333,8.7,10.9,345,993.00,1.3,48,4.87,0.0,1020.82,36.6
2019-04-28 04:30,50.6304566666667,-96.98076,7.9,10.4,343,993.11,1.2,48,4.86,0.0,1020.95,36.6
2019-04-28 04:40,50.6304566666667,-96.98076,9.3,13.8,353,993.08,1.0,50,4.85,0.0,1020.93,36.6
2019-04-28 04:50,50.6304766666667,-96.9807633333333,8.8,11.3,355,993.14,0.8,53,4.84,0.0,1021.03,36.6
2019-04-28 05:00,50.63047,-96.980795,7.0,8.9,352,993.18,0.4,56,4.82,0.0,1021.08,328.9
2019-04-28 05:10,50.63045,-96.9807783333333,6.0,8.4,337,993.24,0.5,52,4.79,0.0,1021.13,328.9
2019-04-28 05:20,50.63045,-96.980775,6.4,9.1,341,993.30,0.5,52,4.76,0.0,1021.20,328.9
2019-04-28 05:30,50.6304516666667,-96.9807766666667,7.8,10.7,350,993.37,0.4,56,4.73,0.0,1021.28,328.9
2019-04-28 05:40,50.6304516666667,-96.9807783333333,5.3,7.7,333,993.44,0.3,55,4.72,0.0,1021.37,328.9
2019-04-28 05:50,50.6304516666667,-96.9807766666667,5.6,7.4,333,993.51,0.3,52,4.70,0.0,1021.45,328.9
2019-04-28 06:00,50.6304566666667,-96.9807616666667,7.1,9.3,345,993.57,0.0,56,4.68,0.0,1021.52,48.3
2019-04-28 06:10,50.6304583333333,-96.980755,7.3,9.7,341,993.55,-0.1,57,4.67,0.0,1021.51,48.3
2019-04-28 06:20,50.6304566666667,-96.9807866666667,7.3,9.6,339,993.49,-0.1,56,4.65,0.0,1021.45,48.3
2019-04-28 06:30,50.6304566666667,-96.98077,6.6,8.9,344,993.54,-0.3,58,4.64,0.0,1021.52,48.3
2019-04-28 06:40,50.6304533333333,-96.9807716666667,6.3,8.6,342,993.57,-0.4,60,4.65,0.0,1021.58,48.3
2019-04-28 06:50,50.63045,-96.98077,6.1,8.8,342,993.56,-0.5,61,4.66,0.0,1021.59,48.3
2019-04-28 07:00,50.6304483333333,-96.98077,6.9,8.8,340,993.56,-0.6,61,4.64,0.0,1021.59,228.3
2019-04-28 07:10,50.6304483333333,-96.9807716666667,6.5,8.7,348,993.58,-0.6,62,4.62,0.0,1021.61,228.3
2019-04-28 07:20,50.6304466666667,-96.98077,6.7,8.5,344,993.54,-0.8,63,4.59,0.0,1021.59,228.3
2019-04-28 07:30,50.6304466666667,-96.98077,8.0,10.1,351,993.42,-0.9,64,4.57,0.0,1021.48,228.3
2019-04-28 07:40,50.6304483333333,-96.98077,7.6,10.2,349,993.39,-1.2,66,4.54,0.0,1021.46,228.3
2019-04-28 07:50,50.6304483333333,-96.9807716666667,7.5,9.3,350,993.39,-1.2,67,4.52,0.0,1021.48,228.3
2019-04-28 08:00,50.6304483333333,-96.9807716666667,8.5,10.1,352,993.43,-1.4,68,4.51,0.0,1021.53,155.7
2019-04-28 08:10,50.6304466666667,-96.9807716666667,9.5,12.4,354,993.47,-1.5,70,4.49,0.0,1021.58,155.7
2019-04-28 08:20,50.6304416666667,-96.9807616666667,10.0,12.3,356,993.51,-1.6,71,4.51,0.0,1021.63,155.7
2019-04-28 08:30,50.630445,-96.9807683333333,9.8,11.8,357,993.60,-1.7,72,4.50,0.0,1021.74,155.7
2019-04-28 08:40,50.630445,-96.9807666666667,9.3,11.7,359,993.73,-1.8,74,4.47,0.0,1021.88,155.7
2019-04-28 08:50,50.630445,-96.9807666666667,9.1,10.8,353,994.00,-1.9,74,4.46,0.0,1022.16,155.7
2019-04-28 09:00,50.6304466666667,-96.9807666666667,9.5,12.0,356,994.04,-1.9,76,4.46,0.0,1022.21,228.3
2019-04-28 09:10,50.6304483333333,-96.980785,10.1,12.6,357,994.08,-1.8,77,4.51,0.0,1022.25,228.3
2019-04-28 09:20,50.6304466666667,-96.98077,10.7,13.6,355,994.21,-1.6,77,4.51,0.0,1022.39,228.3
2019-04-28 09:30,50.6304433333333,-96.98076,11.0,13.7,357,994.38,-1.7,79,4.46,0.0,1022.57,228.3
2019-04-28 09:40,50.6304466666667,-96.9807633333333,10.4,13.4,360,994.37,-1.7,81,4.42,0.0,1022.58,228.3
2019-04-28 09:50,50.6304166666667,-96.9807683333333,11.1,15.7,1,994.31,-1.8,81,4.44,0.0,1022.53,228.3
2019-04-28 10:00,50.6304233333333,-96.9807683333333,11.0,13.7,6,994.39,-2.0,83,4.46,0.0,1022.61,154.3
2019-04-28 10:10,50.6304566666667,-96.9807533333333,10.8,14.2,6,994.34,-2.3,87,4.47,0.0,1022.59,154.3
2019-04-28 10:20,50.6304533333333,-96.9807533333333,11.4,13.6,4,994.35,-2.4,88,4.47,0.0,1022.61,154.3
2019-04-28 10:30,50.6304316666667,-96.9807483333333,11.4,13.6,6,994.39,-2.5,88,4.47,0.0,1022.66,154.3
2019-04-28 10:40,50.6304466666667,-96.9807466666667,11.4,13.3,8,994.61,-2.5,88,4.47,0.0,1022.89,154.3
2019-04-28 10:50,50.63045,-96.9807533333333,11.2,13.9,10,994.75,-2.6,88,4.46,0.0,1023.05,154.3
2019-04-28 11:00,50.6304533333333,-96.9807583333333,10.7,12.2,10,994.95,-2.7,90,4.47,0.0,1023.24,60.8
2019-04-28 11:10,50.6304516666667,-96.9807583333333,10.6,12.5,13,994.87,-2.8,92,4.47,0.0,1023.16,60.8
2019-04-28 11:20,50.6304516666667,-96.98076,10.2,13.1,15,994.87,-2.9,93,4.47,0.0,1023.17,60.8
2019-04-28 11:30,50.6304533333333,-96.9807616666667,9.5,11.4,19,994.95,-2.8,94,4.48,0.0,1023.26,60.8
2019-04-28 11:40,50.6304516666667,-96.9807616666667,8.5,10.4,14,995.19,-2.7,94,4.50,0.0,1023.50,60.8
2019-04-28 11:50,50.6304416666667,-96.98079,8.4,10.1,16,995.30,-2.7,95,4.50,0.0,1023.62,60.8
2019-04-28 12:00,50.6304483333333,-96.9807633333333,7.3,8.6,18,995.57,-2.6,95,4.51,0.0,1023.91,0.0
2019-04-28 12:10,50.6304516666667,-96.98076,7.9,9.3,14,995.70,-2.6,96,4.52,0.0,1024.05,0.0
2019-04-28 12:20,50.6304566666667,-96.9807716666667,8.7,10.1,18,995.79,-2.6,96,4.54,0.0,1024.15,0.0
2019-04-28 12:30,50.630455,-96.9807683333333,9.2,10.5,20,995.83,-2.5,95,4.55,0.0,1024.18,0.0
2019-04-28 12:40,50.6304533333333,-96.98077,9.5,12.1,14,995.79,-2.5,97,4.56,0.0,1024.15,0.0
2019-04-28 12:50,50.6304533333333,-96.9807716666667,9.1,10.9,14,995.90,-2.5,97,4.56,0.0,1024.26,0.0
2019-04-28 13:00,50.6304533333333,-96.9807716666667,7.2,8.9,23,996.03,-2.4,96,4.56,0.0,1024.39,330.1
2019-04-28 13:10,50.6304516666667,-96.9807716666667,6.7,8.3,31,996.15,-2.2,94,4.56,0.0,1024.51,330.1
2019-04-28 13:20,50.6304516666667,-96.9807716666667,5.5,8.7,49,996.50,-1.8,91,4.57,0.0,1024.85,330.1
2019-04-28 13:30,50.6304516666667,-96.9807733333333,5.4,7.0,52,996.70,-1.5,89,4.58,0.0,1025.03,330.1
2019-04-28 13:40,50.630445,-96.980785,6.4,7.7,29,996.64,-1.5,92,4.60,0.0,1024.97,330.1
2019-04-28 13:50,50.6304533333333,-96.9807683333333,6.6,8.6,27,996.71,-1.6,94,4.60,0.0,1025.05,330.1
2019-04-28 14:00,50.6304516666667,-96.98077,6.0,8.6,21,996.78,-1.7,94,4.60,0.0,1025.12,270.0
2019-04-28 14:10,50.63045,-96.980785,4.4,6.0,45,996.83,-1.4,90,4.59,0.0,1025.16,270.0
2019-04-28 14:20,50.630445,-96.98077,3.1,4.2,72,996.87,-0.8,86,4.58,0.0,1025.16,270.0
2019-04-28 14:30,50.6304466666667,-96.9807633333333,3.0,4.1,85,996.84,0.0,82,4.58,0.0,1025.09,270.0
2019-04-28 14:40,50.6304466666667,-96.9807616666667,3.9,5.8,40,996.77,-0.1,85,4.58,0.0,1025.02,270.0
2019-04-28 14:50,50.63045,-96.9807616666667,6.4,7.5,20,996.66,-0.4,87,4.61,0.0,1024.92,270.0
2019-04-28 15:00,50.6304516666667,-96.9807783333333,7.4,9.0,13,996.54,-0.5,89,4.62,0.0,1024.79,293.6
2019-04-28 15:10,50.630435,-96.98077,7.0,8.5,19,996.40,-0.5,90,4.64,0.0,1024.63,293.6
2019-04-28 15:20,50.630455,-96.980755,7.6,9.8,18,996.22,-0.5,90,4.66,0.0,1024.42,293.6
2019-04-28 15:30,50.63045,-96.9807566666667,9.0,10.2,13,996.06,-0.6,90,4.68,0.0,1024.27,293.6
2019-04-28 15:40,50.6304483333333,-96.9807583333333,10.5,12.1,9,996.02,-0.7,92,4.70,0.0,1024.23,293.6
2019-04-28 15:50,50.6304383333333,-96.9807633333333,10.4,11.9,10,996.02,-0.7,94,4.72,0.0,1024.24,293.6
2019-04-28 16:00,50.6304383333333,-96.980765,9.3,10.5,14,996.04,-0.7,93,4.68,0.0,1024.24,138.7
2019-04-28 16:10,50.630415,-96.9807583333333,8.3,9.5,12,996.08,-0.7,95,4.68,0.0,1024.26,138.7
2019-04-28 16:20,50.63046,-96.9807616666667,7.7,8.9,12,996.13,-0.3,92,4.68,0.0,1024.24,138.7
2019-04-28 16:30,50.6304566666667,-96.9807533333333,8.6,10.1,8,996.15,-0.1,91,4.68,0.0,1024.25,138.7
2019-04-28 16:40,50.6304533333333,-96.9807616666667,9.2,10.5,6,996.11,-0.1,91,4.69,0.0,1024.23,138.7
2019-04-28 16:50,50.6304516666667,-96.9807666666667,9.5,12.2,7,996.04,0.0,88,4.72,0.0,1024.16,138.7
2019-04-28 17:00,50.6304483333333,-96.98076,9.3,10.6,9,996.00,0.0,88,4.73,0.0,1024.12,167.4
2019-04-28 17:10,50.6304516666667,-96.980765,9.9,12.0,8,995.93,0.1,88,4.76,0.0,1024.04,167.4
2019-04-28 17:20,50.6304466666667,-96.980765,10.9,13.3,6,995.82,0.3,83,4.77,0.0,1023.93,167.4
2019-04-28 17:30,50.630445,-96.9807666666667,10.9,13.2,8,995.80,0.3,78,4.78,0.0,1023.90,167.4
2019-04-28 17:40,50.630455,-96.98079,10.5,12.5,6,995.79,0.4,74,4.79,0.0,1023.89,167.4
2019-04-28 17:50,50.6304466666667,-96.9807666666667,10.5,12.4,6,995.74,0.7,72,4.79,0.0,1023.82,167.4
2019-04-28 18:00,50.630455,-96.9807783333333,11.7,13.6,6,995.58,0.9,68,4.82,0.0,1023.65,90.0
2019-04-28 18:10,50.6304516666667,-96.9807716666667,11.5,14.1,7,995.47,0.9,67,4.83,0.0,1023.51,90.0
2019-04-28 18:20,50.63045,-96.98077,11.8,13.9,6,995.45,1.1,64,4.83,0.0,1023.47,90.0
2019-04-28 18:30,50.63045,-96.98077,11.1,13.0,7,995.48,1.2,66,4.84,0.0,1023.50,90.0
2019-04-28 18:40,50.6304516666667,-96.9807683333333,11.2,12.8,7,995.55,1.2,64,4.86,0.0,1023.57,90.0
2019-04-28 18:50,50.63045,-96.98077,11.4,12.8,6,995.60,1.4,59,4.86,0.0,1023.61,90.0
2019-04-28 19:00,50.63045,-96.98077,11.3,13.0,6,995.56,1.8,53,4.86,0.0,1023.54,360.0
2019-04-28 19:10,50.63045,-96.9807683333333,11.6,13.1,6,995.50,1.9,50,4.88,0.0,1023.46,360.0
2019-04-28 19:20,50.63045,-96.98077,10.7,13.1,6,995.63,2.2,48,4.89,0.0,1023.58,360.0
2019-04-28 19:30,50.63045,-96.98077,10.8,12.4,7,995.65,2.1,51,4.92,0.0,1023.60,360.0
2019-04-28 19:40,50.63045,-96.9807683333333,11.0,12.7,7,995.63,2.0,52,4.94,0.0,1023.57,360.0
2019-04-28 19:50,50.6304483333333,-96.9807683333333,11.7,13.5,6,995.53,2.1,50,4.96,0.0,1023.45,360.0
2019-04-28 20:00,50.6304483333333,-96.9807683333333,12.0,13.8,5,995.43,2.1,52,4.97,0.0,1023.35,270.0
2019-04-28 20:10,50.6304083333333,-96.98074,12.5,14.5,5,995.29,2.2,52,4.96,0.0,1023.19,270.0
2019-04-28 20:20,50.6304466666667,-96.9807783333333,12.7,15.0,5,995.21,2.3,52,4.96,0.0,1023.11,270.0
2019-04-28 20:30,50.63045,-96.9807833333333,12.9,14.8,6,995.13,2.2,54,4.96,0.0,1023.02,270.0
2019-04-28 20:40,50.6304483333333,-96.98078,12.7,15.3,5,995.03,2.1,56,4.95,0.0,1022.91,270.0
2019-04-28 20:50,50.6304483333333,-96.9807766666667,13.2,15.9,5,994.95,2.2,55,4.97,0.0,1022.81,270.0
2019-04-28 21:00,50.6304483333333,-96.980775,12.8,15.3,6,994.91,2.2,56,4.98,0.0,1022.76,119.2
2019-04-28 21:10,50.6304483333333,-96.9807733333333,14.7,17.1,6,994.63,2.3,57,4.96,0.0,1022.45,119.2
2019-04-28 21:20,50.63045,-96.9807733333333,14.6,16.7,6,994.52,2.1,60,4.97,0.0,1022.35,119.2
2019-04-28 21:30,50.63045,-96.9807733333333,12.8,15.9,5,994.66,2.2,59,4.97,0.0,1022.50,119.2
2019-04-28 21:40,50.63046,-96.9807983333333,12.2,14.3,6,994.71,2.3,57,4.96,0.0,1022.54,119.2
2019-04-28 21:50,50.630445,-96.9807833333333,12.9,15.2,6,994.57,2.3,58,4.97,0.0,1022.39,119.2
2019-04-28 22:00,50.6304483333333,-96.980775,12.8,14.5,6,994.45,2.3,59,4.97,0.0,1022.27,192.6
2019-04-28 22:10,50.6304516666667,-96.9807716666667,12.2,13.9,7,994.42,1.9,63,4.96,0.0,1022.26,192.6
2019-04-28 22:20,50.6304516666667,-96.9807683333333,11.9,13.9,7,994.45,2.1,58,4.97,0.0,1022.28,192.6
2019-04-28 22:30,50.630455,-96.9807616666667,11.5,13.5,6,994.47,2.0,61,4.98,0.0,1022.30,192.6
2019-04-28 22:40,50.6304566666667,-96.9807683333333,11.3,13.5,7,994.45,2.1,60,4.98,0.0,1022.27,192.6
2019-04-28 22:50,50.630455,-96.9807716666667,11.5,13.3,7,994.43,1.8,65,4.99,0.0,1022.28,192.6
2019-04-28 23:00,50.630455,-96.98077,12.1,14.7,5,994.40,2.0,60,5.03,0.0,1022.23,38.0
2019-04-28 23:10,50.6304866666667,-96.9807816666667,12.1,14.9,4,994.42,2.4,57,5.02,0.0,1022.24,38.0
2019-04-28 23:20,50.6304633333333,-96.98078,12.4,15.0,5,994.49,2.4,59,5.00,0.0,1022.30,38.0
2019-04-28 23:30,50.6304633333333,-96.980785,11.9,14.2,6,994.53,2.0,63,4.99,0.0,1022.35,38.0
2019-04-28 23:40,50.6304566666667,-96.9807716666667,11.8,13.5,6,994.46,1.6,66,4.98,0.0,1022.31,38.0
2019-04-28 23:50,50.6304566666667,-96.9807683333333,11.4,13.3,7,994.40,1.2,71,4.96,0.0,1022.27,38.0
